| time (UTC) | temp F | wind direction | speed MPH | gust MPH | rain 1hr in | rain 24hr in | rain mn in | humidity % | barometer mb |
| 20260901191550 | 60 | 0 | 3.0 | 8.0 | 0.00 | 0.00 | 0.00 | 65 | 1021.5 |
| 20260901190048 | 60 | 260 | 0.0 | 5.0 | 0.00 | 0.00 | 0.00 | 64 | 1021.3 |
| 20260901184603 | 62 | 0 | 3.0 | 8.0 | 0.00 | 0.00 | 0.00 | 60 | 1020.9 |
| 20260901183115 | 63 | 115 | 6.0 | 11.0 | 0.00 | 0.00 | 0.00 | 58 | 1020.7 |
| 20260901181552 | 65 | 103 | 6.0 | 20.0 | 0.00 | 0.00 | 0.00 | 54 | 1020.4 |
| 20260901180051 | 66 | 116 | 9.0 | 14.0 | 0.00 | 0.00 | 0.00 | 55 | 1020.3 |
| 20260901174556 | 66 | 88 | 4.0 | 9.0 | 0.00 | 0.00 | 0.00 | 56 | 1020.1 |
| 20260901173139 | 66 | 78 | 3.0 | 9.0 | 0.00 | 0.00 | 0.00 | 56 | 1019.9 |
| 20260901171600 | 67 | 41 | 3.0 | 15.0 | 0.00 | 0.00 | 0.00 | 55 | 1019.7 |
| 20260901170057 | 67 | 275 | 10.0 | 16.0 | 0.00 | 0.00 | 0.00 | 55 | 1019.5 |
| 20260901164559 | 68 | 233 | 14.0 | 19.0 | 0.00 | 0.00 | 0.00 | 51 | 1019.2 |
| 20260901163111 | 70 | 207 | 15.0 | 21.0 | 0.00 | 0.00 | 0.00 | 49 | 1019.3 |
| 20260901161602 | 70 | 226 | 10.0 | 16.0 | 0.00 | 0.00 | 0.00 | 50 | 1019.2 |
| 20260901160056 | 71 | 250 | 10.0 | 19.0 | 0.00 | 0.00 | 0.00 | 47 | 1019.3 |
| 20260901154549 | 73 | 225 | 13.0 | 19.0 | 0.00 | 0.00 | 0.00 | 45 | 1019.2 |
| 20260901153059 | 73 | 234 | 12.0 | 20.0 | 0.00 | 0.00 | 0.00 | 47 | 1019.1 |
| 20260901151559 | 73 | 253 | 15.0 | 22.0 | 0.00 | 0.00 | 0.00 | 47 | 1019.1 |
| 20260901144600 | 74 | 262 | 16.0 | 21.0 | 0.00 | 0.00 | 0.00 | 45 | 1018.9 |
| 20260901143108 | 75 | 264 | 14.0 | 19.0 | 0.00 | 0.00 | 0.00 | 44 | 1018.8 |
| 20260901141614 | 75 | 265 | 16.0 | 22.0 | 0.00 | 0.00 | 0.00 | 44 | 1018.8 |
| 20260901140057 | 75 | 265 | 14.0 | 20.0 | 0.00 | 0.00 | 0.00 | 43 | 1018.8 |
| 20260901134552 | 75 | 252 | 15.0 | 25.0 | 0.00 | 0.00 | 0.00 | 44 | 1018.9 |
| 20260901133050 | 75 | 246 | 16.0 | 22.0 | 0.00 | 0.00 | 0.00 | 44 | 1019.1 |
| 20260901131558 | 76 | 262 | 15.0 | 23.0 | 0.00 | 0.00 | 0.00 | 44 | 1019.1 |
| 20260901130057 | 76 | 243 | 15.0 | 23.0 | 0.00 | 0.00 | 0.00 | 44 | 1019.1 |
| 20260901124550 | 76 | 242 | 15.0 | 22.0 | 0.00 | 0.00 | 0.00 | 43 | 1019.2 |
| 20260901123101 | 76 | 252 | 15.0 | 24.0 | 0.00 | 0.00 | 0.00 | 42 | 1019.2 |
| 20260901121605 | 76 | 243 | 14.0 | 21.0 | 0.00 | 0.00 | 0.00 | 43 | 1019.2 |
| 20260901120106 | 75 | 258 | 16.0 | 24.0 | 0.00 | 0.00 | 0.00 | 42 | 1019.3 |
| 20260901114552 | 75 | 242 | 15.0 | 21.0 | 0.00 | 0.00 | 0.00 | 45 | 1019.5 |
| 20260901113051 | 76 | 242 | 16.0 | 25.0 | 0.00 | 0.00 | 0.00 | 45 | 1019.4 |
| 20260901111604 | 75 | 250 | 16.0 | 24.0 | 0.00 | 0.00 | 0.00 | 45 | 1019.5 |
| 20260901110058 | 75 | 259 | 18.0 | 25.0 | 0.00 | 0.00 | 0.00 | 44 | 1019.3 |
| 20260901104554 | 76 | 235 | 17.0 | 27.0 | 0.00 | 0.00 | 0.00 | 44 | 1019.5 |
| 20260901103056 | 75 | 257 | 17.0 | 24.0 | 0.00 | 0.00 | 0.00 | 44 | 1019.6 |
| 20260901101556 | 75 | 245 | 16.0 | 26.0 | 0.00 | 0.00 | 0.00 | 45 | 1019.5 |
| 20260901094549 | 74 | 250 | 18.0 | 28.0 | 0.00 | 0.00 | 0.00 | 47 | 1019.3 |
| 20260901093057 | 73 | 250 | 18.0 | 28.0 | 0.00 | 0.00 | 0.00 | 48 | 1019.2 |
| 20260901091552 | 74 | 261 | 19.0 | 27.0 | 0.00 | 0.00 | 0.00 | 50 | 1019.1 |
| 20260901090049 | 73 | 249 | 18.0 | 26.0 | 0.00 | 0.00 | 0.00 | 51 | 1019.2 |
| 20260901084552 | 73 | 242 | 17.0 | 23.0 | 0.00 | 0.00 | 0.00 | 52 | 1019.3 |
| 20260901083056 | 73 | 233 | 17.0 | 23.0 | 0.00 | 0.00 | 0.00 | 53 | 1019.1 |
| 20260901081552 | 72 | 241 | 18.0 | 25.0 | 0.00 | 0.00 | 0.00 | 54 | 1019.2 |
| 20260901080106 | 72 | 255 | 15.0 | 22.0 | 0.00 | 0.00 | 0.00 | 57 | 1019.0 |
| 20260901074621 | 72 | 249 | 13.0 | 19.0 | 0.00 | 0.00 | 0.00 | 57 | 1019.1 |
| 20260901073055 | 71 | 245 | 10.0 | 17.0 | 0.00 | 0.00 | 0.00 | 59 | 1018.9 |
| 20260901071550 | 70 | 289 | 7.0 | 15.0 | 0.00 | 0.00 | 0.00 | 59 | 1018.7 |
| 20260901070055 | 69 | 302 | 3.0 | 8.0 | 0.00 | 0.00 | 0.00 | 60 | 1018.7 |
| 20260901064551 | 70 | 238 | 3.0 | 10.0 | 0.00 | 0.00 | 0.00 | 60 | 1018.5 |
| 20260901063056 | 69 | 262 | 2.0 | 10.0 | 0.00 | 0.00 | 0.00 | 60 | 1018.5 |
| 20260901061558 | 68 | 221 | 6.0 | 10.0 | 0.00 | 0.00 | 0.00 | 64 | 1018.5 |
| 20260901060057 | 66 | 236 | 3.0 | 8.0 | 0.00 | 0.00 | 0.00 | 70 | 1018.5 |
| 20260901054552 | 65 | 230 | 2.0 | 4.0 | 0.00 | 0.00 | 0.00 | 78 | 1018.6 |
| 20260901053058 | 61 | 229 | 3.0 | 5.0 | 0.00 | 0.00 | 0.00 | 82 | 1018.5 |
| 20260901051606 | 60 | 265 | 5.0 | 8.0 | 0.00 | 0.00 | 0.00 | 82 | 1018.4 |
| 20260901050104 | 60 | 328 | 2.0 | 5.0 | 0.00 | 0.00 | 0.00 | 83 | 1018.2 |
| 20260901044606 | 59 | 351 | 3.0 | 6.0 | 0.00 | 0.00 | 0.00 | 84 | 1018.2 |
| 20260901043049 | 59 | 263 | 4.0 | 7.0 | 0.00 | 0.00 | 0.00 | 83 | 1018.0 |
| 20260901041613 | 60 | 184 | 1.0 | 3.0 | 0.00 | 0.00 | 0.00 | 81 | 1018.0 |
| 20260901040133 | 61 | 184 | 1.0 | 3.0 | 0.00 | 0.00 | 0.00 | 80 | 1017.9 |
| 20260901034609 | 62 | 183 | 3.0 | 10.0 | 0.00 | 0.00 | 0.00 | 78 | 1017.8 |
| 20260901033049 | 62 | 132 | 8.0 | 13.0 | 0.00 | 0.00 | 0.00 | 81 | 1017.5 |
| 20260901031558 | 60 | 110 | 6.0 | 9.0 | 0.00 | 0.00 | 0.00 | 84 | 1017.4 |
| 20260901030052 | 61 | 103 | 2.0 | 5.0 | 0.00 | 0.00 | 0.00 | 83 | 1017.4 |
| 20260901024554 | 61 | 53 | 3.0 | 8.0 | 0.00 | 0.00 | 0.00 | 84 | 1017.4 |
| 20260901023055 | 61 | 55 | 3.0 | 10.0 | 0.00 | 0.00 | 0.00 | 84 | 1017.3 |
| 20260901021552 | 60 | 49 | 2.0 | 8.0 | 0.00 | 0.00 | 0.00 | 84 | 1017.3 |
| 20260901020055 | 60 | 279 | 6.0 | 10.0 | 0.00 | 0.00 | 0.00 | 83 | 1017.7 |
| 20260901014602 | 61 | 153 | 0.0 | 5.0 | 0.00 | 0.00 | 0.00 | 82 | 1017.2 |
| 20260901013101 | 62 | 153 | 3.0 | 5.0 | 0.00 | 0.00 | 0.00 | 83 | 1017.2 |
| 20260901011551 | 61 | 182 | 2.0 | 7.0 | 0.00 | 0.00 | 0.00 | 84 | 1017.8 |
| 20260901010114 | 61 | 69 | 5.0 | 9.0 | 0.00 | 0.00 | 0.00 | 85 | 1017.9 |
| 20260901004556 | 58 | 306 | 4.0 | 7.0 | 0.00 | 0.00 | 0.00 | 84 | 1017.9 |
| 20260901003105 | 60 | 345 | 3.0 | 5.0 | 0.00 | 0.00 | 0.00 | 83 | 1017.7 |
| 20260901001558 | 61 | 78 | 0.0 | 6.0 | 0.00 | 0.00 | 0.00 | 84 | 1017.4 |
| 20260901000055 | 61 | 44 | 3.0 | 5.0 | 0.00 | 0.00 | 0.00 | 85 | 1017.5 |
| 20260831234602 | 60 | 0 | 0.0 | 4.0 | 0.00 | 0.00 | 0.00 | 86 | 1017.7 |
| 20260831233049 | 60 | 290 | 1.0 | 3.0 | 0.00 | 0.00 | 0.00 | 85 | 1017.6 |
| 20260831231558 | 60 | 294 | 2.0 | 4.0 | 0.00 | 0.00 | 0.00 | 85 | 1017.4 |
| 20260831230111 | 59 | 0 | 0.0 | 3.0 | 0.00 | 0.00 | 0.00 | 85 | 1017.4 |
| 20260831224553 | 59 | 300 | 2.0 | 4.0 | 0.00 | 0.00 | 0.00 | 84 | 1017.7 |
| 20260831223106 | 60 | 5 | 2.0 | 4.0 | 0.00 | 0.00 | 0.00 | 84 | 1017.6 |
| 20260831221556 | 60 | 0 | 0.0 | 3.0 | 0.00 | 0.00 | 0.00 | 83 | 1017.6 |
| 20260831220050 | 61 | 334 | 2.0 | 4.0 | 0.00 | 0.00 | 0.00 | 81 | 1017.6 |
| 20260831214608 | 63 | 334 | 2.0 | 4.0 | 0.00 | 0.00 | 0.00 | 80 | 1017.4 |
| 20260831213051 | 64 | 98 | 1.0 | 4.0 | 0.00 | 0.00 | 0.00 | 79 | 1017.5 |
| 20260831211552 | 64 | 33 | 1.0 | 4.0 | 0.00 | 0.00 | 0.00 | 79 | 1017.6 |
| 20260831210047 | 64 | 30 | 1.0 | 6.0 | 0.00 | 0.00 | 0.00 | 79 | 1017.6 |
| 20260831204554 | 65 | 242 | 1.0 | 3.0 | 0.00 | 0.00 | 0.00 | 78 | 1017.4 |
| 20260831203055 | 65 | 196 | 1.0 | 5.0 | 0.00 | 0.00 | 0.00 | 79 | 1017.3 |
| 20260831201551 | 65 | 272 | 1.0 | 6.0 | 0.00 | 0.00 | 0.00 | 77 | 1017.2 |
| 20260831200104 | 67 | 320 | 2.0 | 4.0 | 0.00 | 0.00 | 0.00 | 73 | 1017.0 |
| 20260831194624 | 68 | 49 | 3.0 | 4.0 | 0.00 | 0.00 | 0.00 | 72 | 1016.7 |
| 20260831193050 | 69 | 61 | 2.0 | 6.0 | 0.00 | 0.00 | 0.00 | 71 | 1016.7 |